Starlink 2533

operational
NORAD ID: 48294 Int'l Des: 2021-036 Owner: SPXS Country: US Constellation: starlink
LEOCIRCULARSTARLINK_TYPE

Über Starlink 2533

Beschreibung wird geladen...

Live-Position

3D-Globus wird geladen...

Nächste Überflüge

Höhenverlauf

Altitude vs Time

uPlot chart will show altitude changes over time

Zweizeiliger Elementsatz

1 48294U 21036U 26035.16668981 -.00015363 00000-0 -52070-3 0 9997
2 48294 53.1558 230.9330 0001617 72.6721 114.1786 15.29383042 5770
Epoch: 4. Feb. 2026 • Age: 7 hours

Aktueller Status

Höhe 497.3 km
Geschwindigkeit 7.62 km/s
Subsatellitenpunkt -53.26°S, 157.71°W
Startdatum 29. Apr. 2021
Alter 4.7 years
Typ internet

Technische Details

Klassifizierung Payload
Masse 260.00 kg
Trockenmasse 248.00 kg
Gesamtmasse 260.00 kg
Länge 0.20 m
Durchmesser 2.80 m
Spannweite 9.00 m
Form Box + pan
Hersteller SPXS
Bus-Typ Starlink
Phasenstatus In Orbit
Besitzer/Staat SPXS/US

Große Konstellationen

Loading constellations...